Location: Antist
(43.1184°N, 0.1270°E)
Time: 16:40:12
(UTC+00:00)

ADEOS Rocket - Pass Details

Date: 19 January 2020
Orbit: 859 x 1306 km, 98.7° (Epoch: 21 February)

Event Time Altitude Azimuth Distance (km) Brightness Sun altitude
Exits shadow 20:06:40 - 1° (N) 3,018 5.6 -34.8°
Reaches altitude 10° 20:07:12 10° 359° (N) 2,836 5.4 -34.9°
Maximum altitude 20:13:07 41° 293° (WNW) 1,568 4.3 -36.0°
Drops below altitude 10° 20:19:37 10° 226° (SW) 3,109 6.0 -37.1°
Sets 20:22:30 0° 220° (SW) 4,127 6.6 -37.7°
